Overview Statistics Trail Chart Weather Telemetry Raw packets
 

This is the latest recevied weather packets stored in our database for station/object K0APR. If no packets are shown the sender has not sent any weather packets the latest 10 day(s).

<< 107 108 109 110 111 112 113 >>
Time Temp. Humidity Pressure Rain* Wind** Luminosity Snow
1787850225 23.89° C 58% 1021.1 hPa 0 mm - 621 W/m² -
1787849924 23.89° C 58% 1021.1 hPa 0 mm - 610 W/m² -
1787849619 23.33° C 61% 1021.1 hPa 0 mm - 627 W/m² -
1787849319 23.89° C 60% 1021.1 hPa 0 mm - 624 W/m² -
1787849018 23.33° C 59% 1021.1 hPa 0 mm - 639 W/m² -
1787848713 23.33° C 61% 1021.1 hPa 0 mm - 637 W/m² -
1787848408 23.33° C 61% 1021.1 hPa 0 mm - 636 W/m² -
1787848107 23.89° C 62% 1021.1 hPa 0 mm - 641 W/m² -
1787847802 22.78° C 65% 1021.1 hPa 0 mm - 619 W/m² -
1787847498 22.78° C 65% 1021.1 hPa 0 mm - 572 W/m² -
1787847193 22.78° C 66% 1021.1 hPa 0 mm - 568 W/m² -
1787846889 22.78° C 67% 1021.1 hPa 0 mm - 558 W/m² -
1787846589 22.78° C 68% 1021.1 hPa 0 mm - 544 W/m² -
1787846284 22.22° C 67% 1021.1 hPa 0 mm - 541 W/m² -
1787845980 22.22° C 69% 1021.1 hPa 0 mm - 519 W/m² -
1787845676 22.22° C 70% 1021.1 hPa 0 mm - 496 W/m² -
1787845375 21.67° C 71% 1020.6 hPa 0 mm - 501 W/m² -
1787845071 21.11° C 71% 1021.1 hPa 0 mm - 525 W/m² -
1787844767 21.11° C 72% 1021.1 hPa 0 mm - 489 W/m² -
1787844466 21.11° C 73% 1021.1 hPa 0 mm - 488 W/m² -
1787844161 21.11° C 72% 1021.1 hPa 0 mm - 447 W/m² -
1787843860 21.11° C 72% 1020.6 hPa 0 mm - 419 W/m² -
1787843555 20.56° C 74% 1020.6 hPa 0 mm - 404 W/m² -
1787843252 20° C 74% 1021.1 hPa 0 mm - 391 W/m² -
1787842947 20° C 75% 1021.1 hPa 0 mm - 364 W/m² -

* Rain latest hour (hover to see other rain measurements)
** Current wind speed in m/s (hover to see current wind gust speed)